Weather History for KOXI - November, 2012

Change the Weather History Date:

Thursday, November 29, 2012

  Actual Average (KVPZ) Record (KVPZ)
Temperature  
Mean Temperature 38 °F 34 °F  
Max Temperature 50 °F 41 °F 67 °F (1998)
Min Temperature 26 °F 27 °F 19 °F (2007)
Degree Days  
Heating Degree Days 27 31  
Month to date heating degree days 696  
Since 1 July heating degree days 1226  
Cooling Degree Days 0 0  
Month to date cooling degree days 0  
Year to date cooling degree days 713  
Moisture  
Dew Point 27 °F    
Average Humidity 66    
Maximum Humidity 84    
Minimum Humidity 45    
Precipitation  
Precipitation 0.00 in 0.10 in 0.55 in (2001)
Month to date precipitation 3.23  
Year to date precipitation 35.23  
Sea Level Pressure  
Sea Level Pressure 30.21 in    
Wind  
Wind Speed 8 mph (South)    
Max Wind Speed 17 mph    
Max Gust Speed 24 mph    
Visibility 10 miles    
Events      
T = Trace of Precipitation, MM = Missing Value Source: NWS Daily Summary

Daily Weather History Graph

Daily Weather History Graph

Search for Another Location

Airport or City:

Trip Planner

Search our weather history database for the weather conditions in past years. The results will help you decide how hot, cold, wet, or windy it might be!

Date:

Astronomy

Nov. 29, 2012 Rise Set
Actual Time 6:51 AM CST 4:18 PM CST
Civil Twilight 6:20 AM CST 4:49 PM CST
Nautical Twilight 5:46 AM CST 5:23 PM CST
Astronomical Twilight 5:13 AM CST 5:56 PM CST
Moon 5:21 PM CST (11/29) 7:37 AM CST (11/29)
Length of Visible Light 10h 28m
Length of Day
9h 27m
Full, 99% of the Moon is Illuminated
Nov 29
Full
Dec 6
Last Quarter
Dec 13
New
Dec 19
First Quarter
Dec 28
Full

Hourly Weather History & Observations

Time (CST) Temp. Windchill Dew Point Humidity Pressure Visibility Wind Dir Wind Speed Gust Speed Precip Events Conditions
12:15 AM 28.2 °F 23.1 °F 22.1 °F 78% 30.30 in 10.0 mi SSW 4.6 mph - N/A   Clear
12:55 AM 28.6 °F 23.5 °F 22.1 °F 77% 30.30 in 10.0 mi SW 4.6 mph - N/A   Clear
1:15 AM 28.2 °F 23.1 °F 21.9 °F 77% 30.30 in 10.0 mi SSW 4.6 mph - N/A   Clear
1:35 AM 27.3 °F 20.9 °F 21.6 °F 79% 30.30 in 10.0 mi South 5.8 mph - N/A   Clear
1:55 AM 26.6 °F 20.0 °F 21.4 °F 81% 30.31 in 10.0 mi SSW 5.8 mph - N/A   Clear
2:15 AM 26.2 °F 19.6 °F 21.7 °F 83% 30.30 in 10.0 mi South 5.8 mph - N/A   Clear
2:55 AM 27.5 °F 21.1 °F 22.6 °F 82% 30.30 in 10.0 mi SSW 5.8 mph - N/A   Clear
3:15 AM 27.5 °F 20.2 °F 22.8 °F 83% 30.30 in 10.0 mi South 6.9 mph - N/A   Clear
3:35 AM 28.2 °F 23.1 °F 23.5 °F 83% 30.30 in 10.0 mi SSW 4.6 mph - N/A   Clear
3:55 AM 27.9 °F 20.6 °F 23.0 °F 82% 30.29 in 10.0 mi South 6.9 mph - N/A   Clear
4:15 AM 28.2 °F 20.2 °F 23.7 °F 83% 30.28 in 10.0 mi SSW 8.1 mph - N/A   Clear
4:35 AM 28.6 °F 21.5 °F 23.7 °F 82% 30.28 in 10.0 mi SSW 6.9 mph - N/A   Clear
4:55 AM 28.0 °F 21.7 °F 23.4 °F 83% 30.28 in 10.0 mi South 5.8 mph - N/A   Clear
5:15 AM 28.2 °F 22.0 °F 23.5 °F 83% 30.28 in 10.0 mi South 5.8 mph - N/A   Clear
5:35 AM 28.8 °F 21.7 °F 23.7 °F 81% 30.27 in 10.0 mi South 6.9 mph - N/A   Clear
5:55 AM 28.9 °F 21.9 °F 23.5 °F 80% 30.28 in 10.0 mi South 6.9 mph - N/A   Clear
6:15 AM 28.4 °F 22.2 °F 23.4 °F 81% 30.28 in 10.0 mi South 5.8 mph - N/A   Clear
6:35 AM 27.3 °F 19.9 °F 22.8 °F 83% 30.28 in 10.0 mi South 6.9 mph - N/A   Clear
7:15 AM 27.3 °F 20.9 °F 23.0 °F 84% 30.27 in 7.0 mi SSW 5.8 mph - N/A   Clear
7:35 AM 27.7 °F 21.3 °F 23.4 °F 84% 30.27 in 7.0 mi South 5.8 mph - N/A   Clear
8:15 AM 31.5 °F 24.2 °F 25.5 °F 79% 30.27 in 10.0 mi South 8.1 mph - N/A   Clear
8:35 AM 32.9 °F 24.1 °F 25.9 °F 75% 30.27 in 10.0 mi South 11.5 mph - N/A   Clear
8:55 AM 34.7 °F 26.4 °F 26.2 °F 71% 30.27 in 10.0 mi SSW 11.5 mph - N/A   Clear
9:15 AM 36.5 °F 28.2 °F 26.8 °F 68% 30.26 in 10.0 mi SSW 12.7 mph - N/A   Clear
9:35 AM 38.1 °F 30.7 °F 27.0 °F 64% 30.26 in 10.0 mi South 11.5 mph - N/A   Clear
9:55 AM 40.1 °F 32.0 °F 27.3 °F 60% 30.26 in 10.0 mi SSW 15.0 mph - N/A   Clear
10:15 AM 41.7 °F 34.4 °F 26.6 °F 55% 30.26 in 10.0 mi SSW 13.8 mph - N/A   Clear
10:55 AM 44.4 °F 37.5 °F 27.3 °F 51% 30.24 in 10.0 mi SSW 15.0 mph 18.4 mph N/A   Clear
11:15 AM 45.7 °F 39.5 °F 27.9 °F 50% 30.23 in 10.0 mi SSW 13.8 mph 19.6 mph N/A   Clear
11:55 AM 47.7 °F - 28.4 °F 47% 30.20 in 10.0 mi SSW 13.8 mph - N/A   Clear
12:15 PM 48.4 °F - 28.0 °F 45% 30.19 in 10.0 mi SSW 13.8 mph 24.2 mph N/A   Clear
12:35 PM 48.9 °F - 28.4 °F 45% 30.19 in 10.0 mi SSW 16.1 mph - N/A   Clear
12:55 PM 49.1 °F - 28.6 °F 45% 30.18 in 10.0 mi SSW 15.0 mph - N/A   Clear
1:15 PM 49.5 °F - 29.3 °F 46% 30.17 in 10.0 mi SW 15.0 mph 20.7 mph N/A   Clear
1:35 PM 49.8 °F - 29.8 °F 46% 30.17 in 10.0 mi SSW 16.1 mph 19.6 mph N/A   Clear
1:55 PM 49.8 °F - 30.0 °F 47% 30.16 in 10.0 mi SSW 17.3 mph - N/A   Clear
2:15 PM 49.8 °F - 30.2 °F 47% 30.16 in 10.0 mi SSW 13.8 mph - N/A   Clear
2:35 PM 50.0 °F - 30.7 °F 48% 30.16 in 10.0 mi SSW 11.5 mph 18.4 mph N/A   Clear
2:55 PM 49.1 °F - 30.7 °F 49% 30.16 in 10.0 mi SSW 13.8 mph - N/A   Clear
3:15 PM 48.6 °F - 30.9 °F 51% 30.16 in 10.0 mi South 12.7 mph - N/A   Clear
3:35 PM 48.2 °F - 30.9 °F 51% 30.15 in 10.0 mi South 11.5 mph - N/A   Clear
3:55 PM 47.7 °F - 31.1 °F 53% 30.15 in 10.0 mi South 9.2 mph - N/A   Clear
4:15 PM 46.2 °F 42.2 °F 30.9 °F 55% 30.15 in 10.0 mi South 8.1 mph - N/A   Clear
4:35 PM 44.6 °F 39.7 °F 30.7 °F 58% 30.14 in 10.0 mi South 9.2 mph - N/A   Clear
4:55 PM 43.3 °F 39.2 °F 30.6 °F 61% 30.14 in 10.0 mi SSE 6.9 mph - N/A   Clear
5:15 PM 42.3 °F 37.3 °F 30.6 °F 63% 30.14 in 10.0 mi SSE 8.1 mph - N/A   Clear
5:35 PM 42.4 °F 36.5 °F 30.7 °F 63% 30.14 in 10.0 mi SSE 10.4 mph - N/A   Mostly Cloudy
5:55 PM 43.9 °F 39.3 °F 31.1 °F 61% 30.15 in 10.0 mi South 8.1 mph - N/A   Overcast
6:15 PM 44.4 °F 39.5 °F 31.1 °F 60% 30.15 in 10.0 mi South 9.2 mph - N/A   Overcast
6:35 PM 43.5 °F 38.3 °F 30.6 °F 60% 30.15 in 10.0 mi South 9.2 mph - N/A   Scattered Clouds
6:55 PM 42.8 °F 37.5 °F 30.4 °F 62% 30.15 in 10.0 mi South 9.2 mph - N/A   Mostly Cloudy
7:15 PM 43.0 °F 38.2 °F 30.7 °F 62% 30.15 in 10.0 mi South 8.1 mph - N/A   Overcast
7:35 PM 43.5 °F 39.4 °F 30.7 °F 61% 30.16 in 10.0 mi South 6.9 mph - N/A   Overcast
7:55 PM 43.2 °F 39.0 °F 30.4 °F 61% 30.16 in 10.0 mi SSE 6.9 mph - N/A   Overcast
8:15 PM 42.8 °F 37.5 °F 30.4 °F 62% 30.16 in 10.0 mi South 9.2 mph - N/A   Overcast
8:35 PM 43.0 °F 37.7 °F 30.2 °F 61% 30.15 in 10.0 mi South 9.2 mph - N/A   Overcast
8:55 PM 43.0 °F 37.7 °F 30.2 °F 61% 30.15 in 10.0 mi South 9.2 mph - N/A   Overcast
9:15 PM 42.8 °F 37.0 °F 30.2 °F 61% 30.15 in 10.0 mi South 10.4 mph - N/A   Overcast
9:35 PM 42.4 °F 37.0 °F 29.8 °F 61% 30.15 in 10.0 mi South 9.2 mph - N/A   Overcast
9:55 PM 41.5 °F 36.4 °F 29.7 °F 63% 30.14 in 10.0 mi SSE 8.1 mph - N/A   Mostly Cloudy
10:15 PM 39.7 °F 34.3 °F 29.3 °F 66% 30.14 in 10.0 mi SSE 8.1 mph - N/A   Scattered Clouds
10:35 PM 38.1 °F 32.3 °F 29.1 °F 70% 30.14 in 10.0 mi SSE 8.1 mph - N/A   Clear
10:55 PM 37.6 °F 31.0 °F 28.9 °F 71% 30.13 in 10.0 mi SSE 9.2 mph - N/A   Clear
11:15 PM 37.8 °F 30.7 °F 28.9 °F 71% 30.13 in 10.0 mi SSE 10.4 mph - N/A   Clear
11:35 PM 38.3 °F 33.2 °F 28.9 °F 69% 30.13 in 10.0 mi SSE 6.9 mph - N/A   Scattered Clouds
11:55 PM 38.5 °F 34.1 °F 29.1 °F 69% 30.12 in 10.0 mi South 5.8 mph - N/A   Mostly Cloudy